Greensboro, NC

1:16 AM EDT on April 27, 2018 (GMT -0400)
Piedmont Triad International

Weather History for KGSO - October, 2011

Change the Weather History Date:

Monday, October 10, 2011

  Actual Average Record
Temperature  
Mean Temperature 65 °F 61 °F  
Max Temperature 73 °F 72 °F 92 °F (1916)
Min Temperature 56 °F 51 °F 33 °F (2000)
Degree Days  
Heating Degree Days 0 5  
Month to date heating degree days 57 40  
Since 1 July heating degree days 77 71  
Cooling Degree Days 0 1  
Month to date cooling degree days 0 19  
Year to date cooling degree days 1785 1466  
Growing Degree Days 14 (Base 50)    
Moisture  
Dew Point 52 °F    
Average Humidity 65    
Maximum Humidity 83    
Minimum Humidity 46    
Precipitation  
Precipitation 0.00 in 0.10 in 4.50 in (1959)
Month to date precipitation T 1.01  
Year to date precipitation 29.47 33.99  
Sea Level Pressure  
Sea Level Pressure 30.20 in    
Wind  
Wind Speed 8 mph (NE)    
Max Wind Speed 15 mph    
Max Gust Speed 18 mph    
Visibility 10 miles    
Events      
T = Trace of Precipitation, MM = Missing Value Source: NWS Daily Summary

Daily Weather History Graph

Daily Weather History Graph

Search for Another Location

Airport or City:

Astronomy

Oct. 10, 2011 Rise Set
Actual Time 7:22 AM EDT 6:50 PM EDT
Civil Twilight 6:56 AM EDT 7:16 PM EDT
Nautical Twilight 6:26 AM EDT 7:46 PM EDT
Astronomical Twilight 5:56 AM EDT 8:16 PM EDT
Moon 5:54 PM EDT (10/10) 6:02 AM EDT (10/10)
Length of Visible Light 12h 20m
Length of Day
11h 28m
Waxing Gibbous, 98% of the Moon is Illuminated
Oct 10
Waxing Gibbous
Oct 11
Full
Oct 19
Last Quarter
Oct 26
New
Nov 2
First Quarter

Hourly Weather History & Observations

Time (EDT) Temp. Dew Point Humidity Pressure Visibility Wind Dir Wind Speed Gust Speed Precip Events Conditions
12:54 AM 59.0 °F 51.1 °F 75% 30.31 in 10.0 mi NNE 5.8 mph - N/A   Clear
1:54 AM 57.9 °F 51.1 °F 78% 30.30 in 10.0 mi NE 3.5 mph - N/A   Clear
2:54 AM 57.0 °F 51.1 °F 81% 30.27 in 10.0 mi NNE 4.6 mph - N/A   Clear
3:54 AM 57.0 °F 51.1 °F 81% 30.26 in 10.0 mi NNE 5.8 mph - N/A   Clear
4:54 AM 57.0 °F 51.1 °F 81% 30.25 in 10.0 mi NNE 4.6 mph - N/A   Clear
5:54 AM 57.0 °F 51.1 °F 81% 30.25 in 10.0 mi NNE 6.9 mph - N/A   Clear
6:54 AM 55.9 °F 50.0 °F 80% 30.25 in 10.0 mi NNE 5.8 mph - N/A   Clear
7:54 AM 57.0 °F 50.0 °F 77% 30.25 in 10.0 mi NNE 5.8 mph - N/A   Clear
8:54 AM 57.9 °F 50.0 °F 75% 30.26 in 10.0 mi NNE 6.9 mph - N/A   Clear
9:54 AM 63.0 °F 51.1 °F 65% 30.26 in 10.0 mi NE 12.7 mph - N/A   Clear
10:54 AM 66.9 °F 52.0 °F 59% 30.25 in 10.0 mi NE 11.5 mph - N/A   Clear
11:54 AM 68.0 °F 51.1 °F 55% 30.24 in 10.0 mi ENE 10.4 mph - N/A   Clear
12:54 PM 70.0 °F 51.1 °F 51% 30.22 in 10.0 mi ENE 12.7 mph - N/A   Clear
1:54 PM 72.0 °F 51.1 °F 48% 30.18 in 10.0 mi NE 10.4 mph 18.4 mph N/A   Clear
2:54 PM 72.0 °F 51.1 °F 48% 30.16 in 10.0 mi ENE 10.4 mph - N/A   Clear
3:54 PM 73.0 °F 52.0 °F 48% 30.15 in 10.0 mi ENE 11.5 mph - N/A   Clear
4:54 PM 73.0 °F 53.1 °F 49% 30.13 in 10.0 mi NE 10.4 mph - N/A   Clear
5:54 PM 71.1 °F 53.1 °F 53% 30.12 in 10.0 mi ENE 9.2 mph - N/A   Clear
6:54 PM 69.1 °F 53.1 °F 57% 30.12 in 10.0 mi ENE 6.9 mph - N/A   Clear
7:54 PM 66.0 °F 54.0 °F 65% 30.12 in 10.0 mi ENE 8.1 mph - N/A   Clear
8:54 PM 66.9 °F 54.0 °F 63% 30.12 in 10.0 mi NE 9.2 mph - N/A   Mostly Cloudy
9:54 PM 64.9 °F 55.0 °F 70% 30.12 in 10.0 mi ENE 9.2 mph - N/A   Mostly Cloudy
10:54 PM 66.0 °F 55.0 °F 68% 30.11 in 10.0 mi NE 8.1 mph - N/A   Mostly Cloudy
11:54 PM 64.9 °F 55.9 °F 73% 30.10 in 10.0 mi NE 8.1 mph - N/A   Overcast